sat.trackr.live / text

‹ back to catalog

STARLINK-6273

NORAD 56395 · 2023-061X

PAYLOAD ACTIVE UNKNOWN

§ Identity

Operator
Country
US
Launch date
2023-05-04
Launch site
AFETR
Launch vehicle
Mass (kg)
RCS (m²)

Purposes: comms

External: N2YO · Heavens-Above · Gunter

§ Orbital elements

Epoch: 2026-09-20T02:36:08.928288Z

Period
94.27 min
Inclination
43.0016°
Eccentricity
0.0000844
Mean motion
15.27575070 rev/d
Perigee alt
482.5 km
Apogee alt
483.6 km
Semi-major
6,861.2 km
B*
2.6596e-6
RAAN
169.4749°
Arg perigee
241.0436°
Mean anomaly
119.0332°
Rev number
18,731

§ Raw data

STARLINK-62731 56395U 23061X   26263.10843667 -.00000189  00000+0  26596-5 0  99952 56395  43.0016 169.4749 0000844 241.0436 119.0332 15.27575070187318

JSON: /api/v1/satellites/56395 · /tle

For live sub-satellite position, see the globe view (requires WebGL).

§ Visibility from observer

Set your observer location to see the next 7 days of passes ≥ 10°. The values pass through the URL so the page stays shareable.

No JS? Fill the form by hand. The geolocation button needs JavaScript.